Hourly Weather Roundup
Issued by NWS Central Illinois

Home | Current Version | Previous Version | Text Only | Print | Product List | Glossary On
Versions: 1 2 3 4 5 6 7 8 9 10 11 12 13 14 15 16 17 18 19 20 21 22 23 24 25 26 27 28 29 30 31 32 33 34 35 36 37 38 39 40 41 42 43 44 45 46 47 48 49 50
762
NZUS43 KILX 221010
HWRILX

Area Weather Roundup
National Weather Service Lincoln IL
400 AM CST MON JAN 22 2018

NOTE:  "FAIR" indicates few or no clouds below 12,000 feet, with
       no sigificant weather and/or obstructions to visibility.


CITY           SKY/WX    TMP DP  RH WIND       PRES   REMARKS
Bloomington    CLOUDY    49  47  93 SE15      29.62F
Champaign      FAIR      51  47  86 SE18G26   29.65F
Danville       MOCLDY    53  46  79 S18G26    29.68F
Decatur        MOCLDY    53  49  86 S21G28    29.62F
Effingham      FAIR      55  47  76 SE13G24   29.68F
Flora          FAIR      54  46  75 S17       29.69F
Galesburg      RAIN      52  52 100 SE9       29.57F
Jacksonville   RAIN      53  52  97 SW7       29.60R
Lacon          RAIN      51  51 100 S9        29.61F
Lawrenceville  FAIR      51  44  77 S16       29.76F
Litchfield     RAIN      51  50  97 S14       29.66S
$$


CITY           SKY/WX    TMP DP  RH WIND       PRES   REMARKS
Lincoln        TSTM      52  51  97 S14G23    29.60F
Macomb         RAIN      51  51 100 S8        29.59F VSB 1/2
Mattoon        FAIR      50  45  83 S14       29.65F
Mt Carmel AP   FAIR      52  44  74 S16       29.74F
Olney-Noble AP FAIR      52  45  76 SE16G23   29.71F
Paris AP       MOCLDY    48  45  89 SE16      29.72F
Peoria         HVY RAIN  53  53 100 S9        29.59F FOG
Pontiac        CLOUDY    50  49  98 SE10      29.65F
Rantoul        MOCLDY    49  48  95 S13       29.67F
Robinson       FAIR      53  45  74 S20G25    29.74F
Springfield    LGT RAIN  54  52  93 S21G32    29.59F
Taylorville    RAIN      52  50  93 S20       29.65R
$$

...REGIONAL REPORTS...


CITY           SKY/WX    TMP DP  RH WIND       PRES   REMARKS
Chicago O`Hare RAIN      47  46  97 NE7       29.68F FOG
Kankakee       CLOUDY   N/A N/A N/A SE5       29.69F FOG
Moline         CLOUDY    51  50  96 NE3       29.57S FOG
Mount Sterling LGT RAIN  50  50  99 E10       29.53F VSB 1
Mount Vernon   FAIR      57  47  69 S15G21    29.66F
Pittsfield     RAIN      53  53  99 E7        29.58F VSB 1
Quincy         CLOUDY    53  51  93 S9        29.55F
Rockford       LGT RAIN  40  40 100 E9        29.67F VSB 1/2 WCI  34
$$


CITY           SKY/WX    TMP DP  RH WIND       PRES   REMARKS
Burlington     LGT RAIN  52  50  93 SE14      29.51F
Cedar Rapids   FOG       41  40  96 E17       29.53F VSB 1   WCI  32
Des Moines     RAIN      39  38  96 NE15      29.47F FOG     WCI  31
Kirksville     CLOUDY    52  52 100 S14       29.50R
Ottumwa        CLOUDY    53  51  93 S14       29.47F
St Louis       RAIN      55  55 100 S10       29.63F
$$


CITY           SKY/WX    TMP DP  RH WIND       PRES   REMARKS
Terre Haute    FAIR      49  43  80 SE9       29.75F
Evansville     FAIR      56  45  66 SE10      29.80F
Indianapolis   MOCLDY    48  46  93 SE10      29.80F
Lafayette      MOCLDY    51  47  86 SE8       29.74F
Madison        HVY RAIN  36  35  96 NE15      29.73F FOG     WCI  27
Milwaukee      DRZL/FOG  37  37 100 NE13      29.76F VSB 1/4 WCI  29
$$






USA.gov is the U.S. government's official web portal to all federal, state and local government web resources and services.